ROSSMERE Weather Reports


time (UTC)temp
C
wind
direction
speed
KPH
gust
KPH
rain 1hr
cm
rain 24hr
cm
rain mn
cm
humidity
%
barometer
mb
20260503174522 12 306 3.2 20.9 0.00 0.00 0.00 34 1001.6
20260503173021 12 276 6.4 14.5 0.00 0.00 0.00 37 1001.7
20260503171519 12 55 4.8 14.5 0.00 0.00 0.00 36 1001.9
20260503081513 2 5 0.0 1.6 0.00 0.00 0.00 78 1005.1
20260503071508 3 5 0.0 0.0 0.00 0.00 0.00 74 1005.7
20260503054555 5 5 0.0 0.0 0.00 0.00 0.00 68 1006.8
20260503053048 5 5 0.0 0.0 0.00 0.00 0.00 69 1007.0
20260503051546 5 5 0.0 0.0 0.00 0.00 0.00 68 1007.3
20260503050045 5 5 0.0 0.0 0.00 0.00 0.00 68 1007.5
20260503044548 5 5 0.0 0.0 0.00 0.00 0.00 68 1007.6
20260503043042 5 5 0.0 0.0 0.00 0.00 0.00 65 1007.8
20260503041543 6 5 0.0 0.0 0.00 0.00 0.00 62 1007.8
20260503040041 6 263 0.0 0.0 0.00 0.00 0.00 60 1007.8
20260503034539 6 263 0.0 0.0 0.00 0.00 0.00 59 1007.8
20260503033032 6 263 0.0 0.0 0.00 0.00 0.00 58 1007.9
20260503031531 6 263 0.0 0.0 0.00 0.00 0.00 57 1008.0
20260503030030 5 263 0.0 0.0 0.00 0.00 0.00 63 1008.2
20260503024530 5 263 0.0 0.0 0.00 0.00 0.00 64 1008.2
20260503023029 5 263 0.0 0.0 0.00 0.00 0.00 64 1008.5
20260503021529 6 263 0.0 0.0 0.00 0.00 0.00 65 1008.4
20260503020029 6 263 0.0 0.0 0.00 0.00 0.00 59 1008.2
20260503014538 6 263 0.0 0.0 0.00 0.00 0.00 58 1008.1
20260503013028 7 263 0.0 0.0 0.00 0.00 0.00 55 1008.1
20260503011526 8 263 0.0 0.0 0.00 0.00 0.00 56 1008.3
20260503010026 8 263 0.0 0.0 0.00 0.00 0.00 45 1008.4
20260503004525 9 263 0.0 0.0 0.00 0.00 0.00 45 1008.5
20260503003023 10 263 0.0 1.6 0.00 0.00 0.00 44 1008.7
20260503001522 10 263 0.0 3.2 0.00 0.00 0.00 41 1008.8
20260503000020 10 261 0.0 4.8 0.00 0.00 0.00 41 1009.0
20260502234519 11 284 0.0 6.4 0.00 0.00 0.00 38 1009.1
20260502233018 10 285 0.0 3.2 0.00 0.00 0.00 42 1009.2
20260502231516 11 285 0.0 4.8 0.00 0.00 0.00 42 1009.3
20260502230017 11 281 0.0 8.0 0.00 0.00 0.00 38 1009.3
20260502224515 11 288 1.6 14.5 0.00 0.00 0.00 39 1009.3
20260502223017 11 288 3.2 8.0 0.00 0.00 0.00 42 1009.4
20260502221511 12 285 1.6 12.9 0.00 0.00 0.00 36 1009.7
20260502220010 12 289 3.2 8.0 0.00 0.00 0.00 38 1009.9
20260502214508 12 293 1.6 8.0 0.00 0.00 0.00 37 1010.0
20260502213006 12 278 3.2 9.7 0.00 0.00 0.00 35 1010.1
20260502211510 12 296 3.2 14.5 0.00 0.00 0.00 33 1010.3
20260502210006 12 259 3.2 8.0 0.00 0.00 0.00 33 1010.5
20260502204558 12 299 3.2 9.7 0.00 0.00 0.00 36 1010.7
20260502203101 11 276 4.8 11.3 0.00 0.00 0.00 40 1011.0
20260502201553 11 301 1.6 14.5 0.00 0.00 0.00 39 1011.2
20260502200050 12 273 3.2 9.7 0.00 0.00 0.00 38 1011.4
20260502194548 11 263 3.2 11.3 0.00 0.00 0.00 39 1011.6
20260502193045 11 259 1.6 11.3 0.00 0.00 0.00 41 1011.9
20260502191542 11 279 1.6 8.0 0.00 0.00 0.00 38 1012.2
20260502190039 11 302 1.6 8.0 0.00 0.00 0.00 38 1012.4
20260502184535 11 298 1.6 12.9 0.00 0.00 0.00 37 1012.6
20260502183033 11 273 3.2 4.8 0.00 0.00 0.00 36 1012.9
20260502181531 11 257 1.6 6.4 0.00 0.00 0.00 36 1013.1